#timestamp,LO_Frequency,Hit,StdDev 
1540659615.8,286047007.8,N
1540659635.6,286047007.3,N
1540659655.5,286047007.3,N
1540659675.3,286047007.4,N
1540659695.1,286047005.2,N
1540659715.9,286047010.4,N
1540659735.7,286047013.8,Y
1540659755.6,286047000.5,P
1540659775.4,286046998.3,N
1540659795.2,286047000.6,N
1540659815.1,286047002.1,N
1540659816.0,286047002.1,N
1540659835.8,286047003.7,N
1540659855.6,286046999.7,N
1540659875.5,286047000.3,N
1540659895.3,286047001.1,N
1540659915.2,286046998.6,N
1540659935.9,286046999.2,N
1540659955.7,286046997.7,N
1540659975.6,286046995.3,N
1540659995.4,286046997.5,N
1540660015.3,286047000.4,N
1540660035.1,286047003.8,N
1540660036.0,286047003.8,N
1540660055.8,286047004.0,N
1540660075.7,286047004.3,N
1540660095.5,286046999.9,N
1540660115.3,286046998.8,N
1540660135.2,286046996.7,N
1540660155.0,286046995.3,N
1540660155.9,286046995.3,N
1540660175.8,286046993.5,N
1540660195.6,286046994.8,N
1540660215.4,286046994.6,N
1540660235.3,286046992.4,N
1540660255.1,286046997.9,N
1540660275.9,286047002.6,N
1540660295.7,286047005.2,N
1540660315.5,286047015.5,Y
1540660335.4,286047016.7,P
1540660355.2,286047015.0,N
1540660375.0,286047014.0,N
1540660376.0,286047014.0,N
1540660395.8,286047008.0,N
1540660415.6,286047005.4,N
1540660435.5,286047001.8,N
1540660455.3,286047002.7,N
1540660475.1,286046998.2,N
1540660495.9,286046997.3,N
1540660515.7,286046997.5,N
1540660535.6,286046995.4,N
1540660555.4,286046996.2,N
1540660575.2,286046994.6,N
1540660595.1,286046992.0,N
1540660596.0,286046992.0,N
1540660615.8,286046988.5,N
1540660635.6,286046988.6,N
1540660655.5,286046988.5,N
1540660675.3,286046989.7,N
1540660695.2,286046987.0,N
1540660715.9,286046990.0,N
1540660735.7,286046989.7,N
1540660755.6,286046991.6,N
1540660775.4,286046991.6,N
1540660795.2,286046989.6,N
1540660815.1,286046987.1,N
1540660816.0,286046987.1,N
1540660835.8,286046987.3,N
1540660855.7,286046986.9,N
1540660875.5,286046986.9,N
1540660895.3,286046987.1,N
1540660915.2,286046988.3,N
1540660935.0,286046987.1,N
1540660935.9,286046987.1,N
1540660955.7,286046987.0,N
1540660975.6,286046987.5,N
1540660995.7,286046987.7,N
1540661015.6,286046987.7,Y
1540661035.4,286046997.7,P
1540661055.3,286046997.4,N
1540661075.1,286046997.2,N
1540661076.0,286046997.2,N
1540661095.8,286046999.1,N
1540661115.7,286046999.2,N
1540661135.5,286046998.3,N
1540661155.3,286046998.7,N
1540661175.2,286046999.0,N
1540661195.0,286046998.8,N
1540661195.9,286046998.8,N
1540661215.8,286046999.4,N
1540661235.6,286046998.8,N
1540661255.4,286046996.5,N
1540661275.3,286046997.5,N
1540661295.1,286046997.1,N
1540661315.8,286046996.9,N
1540661335.7,286046996.6,N
1540661355.5,286046999.5,N
1540661375.4,286046999.2,N
1540661395.2,286046999.5,N
1540661415.0,286046997.8,N
1540661415.9,286046997.8,N
1540661435.8,286046998.7,N
1540661455.6,286046999.1,N
1540661475.4,286046999.4,N
1540661495.3,286046996.9,N
1540661515.1,286046996.6,N
1540661535.9,286046999.3,N
1540661555.7,286046999.5,N
1540661575.5,286046998.1,N
1540661595.4,286047002.7,N
1540661615.2,286047001.8,N
1540661635.0,286047012.1,Y
1540661635.9,286047012.1,P
1540661655.8,286047016.9,N
1540661675.6,286047012.9,N
1540661695.5,286047013.6,N
1540661715.3,286047010.2,N
1540661735.1,286047007.8,N
1540661755.9,286047009.2,N
1540661775.7,286047007.6,N
1540661795.5,286047006.0,N
1540661815.4,286047004.8,N
1540661835.2,286047004.6,N
1540661855.1,286047004.6,N
1540661856.0,286047004.6,N
1540661875.8,286047005.9,N
1540661895.6,286047003.6,N
1540661915.5,286047004.3,N
1540661935.3,286047004.2,N
1540661955.1,286047003.5,N
1540661975.9,286047002.9,N
1540661995.7,286047003.6,N
1540662015.6,286047005.6,N
1540662035.4,286047001.4,N
1540662055.2,286047001.5,N
1540662075.1,286047001.5,N
1540662076.0,286047001.5,N
1540662095.8,286047002.5,N
1540662115.6,286047001.5,N
1540662135.5,286047004.3,N
1540662155.3,286047004.1,N
1540662175.2,286047004.3,N
1540662195.9,286047004.3,N
1540662215.7,286047003.5,N
1540662235.6,286047003.8,N
1540662255.4,286047004.4,N
1540662275.2,286047001.6,N
1540662295.1,286047004.0,N
1540662296.0,286047004.0,N
1540662315.8,286047004.5,Y
1540662335.7,286047008.4,P
1540662355.5,286047007.8,P
1540662375.3,286047009.6,P
1540662395.2,286047012.8,Y
1540662415.0,286047008.8,P
1540662415.9,286047008.8,P
1540662435.8,286047008.0,P
1540662455.6,286047010.8,Y
1540662475.4,286047000.1,P
1540662495.3,286047002.0,N
1540662515.1,286046999.9,N
1540662535.8,286047002.4,N
1540662555.7,286047007.9,N
1540662575.5,286047008.5,N
1540662595.4,286047005.7,N
1540662615.2,286047004.4,N
1540662635.0,286047004.4,N
1540662635.9,286047004.4,N
1540662655.8,286047009.6,Y
1540662675.6,286047004.3,P
1540662695.5,286047000.0,N
1540662715.3,286046997.4,N
1540662735.1,286046993.2,N
1540662755.9,286046988.7,N
1540662775.7,286046988.2,N
1540662795.5,286046984.1,N
1540662815.4,286046983.5,N
1540662835.2,286046979.3,N
1540662855.1,286046978.2,N
1540662856.0,286046978.2,N
1540662875.8,286046978.3,N
1540662895.6,286046978.7,N
1540662915.5,286046976.6,N
1540662935.3,286046974.4,N
1540662956.7,286046972.6,N
1540662975.6,286046974.6,N
1540662995.4,286046976.7,N
1540663015.3,286046974.2,N
1540663035.1,286046975.2,N
1540663055.8,286046975.2,N
1540663075.7,286046973.0,N
1540663095.5,286046973.0,N
1540663115.4,286046973.7,N
1540663135.2,286046973.2,N
1540663155.0,286046973.2,N
1540663155.9,286046973.2,N
1540663175.8,286046973.4,N
1540663195.6,286046973.5,N
